TimeCST,TemperatureF,Dew PointF,Humidity,Sea Level PressureIn,VisibilityMPH,Wind Direction,Wind SpeedMPH,Gust SpeedMPH,PrecipitationIn,Events,Conditions,WindDirDegrees,DateUTC
12:15 AM,55.4,50.0,82,30.17,8.0,NNW,13.8,-,N/A,Rain,Light Rain,340,2012-11-23 06:15:00
12:35 AM,53.6,48.2,82,30.19,10.0,NNW,11.5,19.6,N/A,,Overcast,330,2012-11-23 06:35:00
12:55 AM,51.8,48.2,88,30.20,9.0,NNW,12.7,21.9,N/A,Rain,Light Rain,340,2012-11-23 06:55:00
1:15 AM,51.8,41.0,67,30.20,10.0,NNW,19.6,25.3,N/A,,Overcast,340,2012-11-23 07:15:00
1:35 AM,51.8,39.2,62,30.22,10.0,NNW,13.8,18.4,N/A,,Overcast,330,2012-11-23 07:35:00
1:55 AM,50.0,37.4,62,30.23,10.0,NNW,9.2,-,N/A,,Overcast,340,2012-11-23 07:55:00
2:15 AM,50.0,37.4,62,30.24,10.0,North,13.8,19.6,N/A,,Mostly Cloudy,350,2012-11-23 08:15:00
2:35 AM,48.2,35.6,62,30.25,10.0,NNW,9.2,-,N/A,,Partly Cloudy,330,2012-11-23 08:35:00
2:55 AM,48.2,35.6,62,30.27,10.0,NNW,9.2,-,N/A,,Partly Cloudy,330,2012-11-23 08:55:00
3:15 AM,46.4,35.6,66,30.27,10.0,NNW,9.2,-,N/A,,Scattered Clouds,330,2012-11-23 09:15:00
3:35 AM,46.4,33.8,62,30.28,10.0,NNW,9.2,-,N/A,,Mostly Cloudy,330,2012-11-23 09:35:00
3:55 AM,46.4,32.0,57,30.28,10.0,NNW,10.4,16.1,N/A,,Mostly Cloudy,330,2012-11-23 09:55:00
4:15 AM,44.6,32.0,61,30.29,10.0,NNW,10.4,-,N/A,,Scattered Clouds,330,2012-11-23 10:15:00
4:35 AM,44.6,32.0,61,30.30,10.0,NW,8.1,-,N/A,,Partly Cloudy,320,2012-11-23 10:35:00
4:55 AM,44.6,32.0,61,30.30,10.0,NW,8.1,-,N/A,,Partly Cloudy,320,2012-11-23 10:55:00
5:15 AM,44.6,32.0,61,30.31,10.0,NW,8.1,-,N/A,,Clear,320,2012-11-23 11:15:00
5:35 AM,44.6,32.0,61,30.31,10.0,NW,3.5,-,N/A,,Clear,310,2012-11-23 11:35:00
6:50 AM,41.0,32.0,70,30.33,10.0,WNW,6.9,-,N/A,,Clear,300,2012-11-23 12:50:00
7:50 AM,42.8,32.0,66,30.34,10.0,WNW,11.5,-,N/A,,Clear,300,2012-11-23 13:50:00
8:47 AM,46.4,32.0,57,30.35,10.0,WNW,11.5,18.4,N/A,,Clear,300,2012-11-23 14:47:00
9:51 AM,44.6,26.6,49,30.37,10.0,NW,15.0,24.2,N/A,,Clear,310,2012-11-23 15:51:00
10:45 AM,44.6,26.6,49,30.39,10.0,WNW,11.5,23.0,N/A,,Clear,290,2012-11-23 16:45:00
11:45 AM,41.0,19.4,42,30.39,10.0,WNW,15.0,27.6,N/A,,Clear,300,2012-11-23 17:45:00
12:53 PM,41.0,21.2,45,30.38,10.0,NNW,18.4,27.6,N/A,,Clear,330,2012-11-23 18:53:00
1:48 PM,41.0,19.4,42,30.38,10.0,NW,20.7,28.8,N/A,,Clear,320,2012-11-23 19:48:00
2:51 PM,41.0,21.2,45,30.38,10.0,NW,17.3,25.3,N/A,,Clear,310,2012-11-23 20:51:00
3:47 PM,41.0,21.2,45,30.38,10.0,NW,12.7,26.5,N/A,,Clear,320,2012-11-23 21:47:00
4:45 PM,39.2,21.2,49,30.38,10.0,NW,11.5,19.6,N/A,,Clear,320,2012-11-23 22:45:00
5:47 PM,37.4,21.2,52,30.39,10.0,NW,9.2,-,N/A,,Clear,310,2012-11-23 23:47:00
6:52 PM,35.6,19.4,52,30.40,10.0,NW,12.7,-,N/A,,Clear,320,2012-11-24 00:52:00
7:51 PM,35.6,19.4,52,30.40,10.0,NW,9.2,-,N/A,,Clear,310,2012-11-24 01:51:00
8:15 PM,33.8,19.4,56,30.40,10.0,NW,8.1,-,N/A,,Clear,310,2012-11-24 02:15:00
8:35 PM,33.8,19.4,56,30.40,10.0,NW,10.4,-,N/A,,Clear,310,2012-11-24 02:35:00
8:47 PM,33.8,19.4,56,30.40,10.0,NW,9.2,-,N/A,,Clear,320,2012-11-24 02:47:00
8:55 PM,33.8,19.4,56,30.40,10.0,NW,8.1,-,N/A,,Clear,310,2012-11-24 02:55:00
9:15 PM,32.0,19.4,60,30.40,10.0,NW,9.2,-,N/A,,Clear,320,2012-11-24 03:15:00
9:35 PM,32.0,19.4,60,30.40,10.0,NW,8.1,-,N/A,,Clear,310,2012-11-24 03:35:00
9:55 PM,32.0,17.6,55,30.41,10.0,NW,8.1,-,N/A,,Clear,310,2012-11-24 03:55:00
10:15 PM,32.0,17.6,55,30.41,10.0,NW,5.8,-,N/A,,Clear,310,2012-11-24 04:15:00
10:55 PM,32.0,17.6,55,30.40,10.0,NW,9.2,-,N/A,,Clear,310,2012-11-24 04:55:00
11:15 PM,32.0,15.8,51,30.40,10.0,NW,6.9,-,N/A,,Clear,310,2012-11-24 05:15:00
11:35 PM,32.0,15.8,51,30.40,10.0,NW,9.2,-,N/A,,Clear,310,2012-11-24 05:35:00